Погода в Бурунах

Россия / Астраханская область     46°11′06″N   47°15′13″E
темп.,
°C
ветер,
м/с
пор.,
м/с
влажн.,
%
обл.,
%
осадки,
мм/ч
давл.,
гПа
погр.,
м
8 марта, пн
пн801:00−1ююз59470 0.0 1022364
04:00−2ююз610473 0.0 1021329
07:00−2ююз713520 0.0 1021429
10:00+2юз912380 0.0 1020980
13:00+5юз810330 0.0 10191298
16:00+6юз78320 0.0 10171443
19:00+4юз584067 0.0 1017250
22:00+2ююз5105777 0.0 1018280
9 марта, вт
вт901:00+1юз51070100 0.0 1017272
04:000ююз5880100 0.0 1016151
07:000юз4877100 0.0 1015187
10:00+3зюз686097 0.0 1016549
13:00+6зюз895384 0.0 10141417
16:00+7з8115192 0.0 10131645
19:00+4з6107998 0.1 1013810
22:00+3зсз696999 0.1 1016879
10 марта, ср
ср1001:000зсз477430 0.0 1017233
04:00−1зюз477615 0.0 1017184
07:000з497867 0.0 1018377
10:00+1сз686978 0.0 1020971
13:00+2сз6754100 0.2 10211269
16:00+1сз7843100 0.2 10211680
19:00−1ссз564671 0.0 1022940
22:00−2с564385 0.0 1023601
11 марта, чт
чт1101:00−3ссв4547100 0.0 1023573
04:00−5ссв5648100 0.0 1023597
07:00−6св5646100 0.0 1024637
10:00−6ссв6734100 0.0 1025693
13:00−4ссв6630100 0.0 10241023
16:00−3ссв6631100 0.0 10241204
19:00−5св6633100 0.0 10251016
22:00−6ссв6733100 0.0 1027915
12 марта, пт
пт1201:00−8ссв683343 0.0 1028685
04:00−9ссв683722 0.0 1029629
07:00−10ссв57410 0.0 1030569
10:00−9ссв44300 0.0 1033678
13:00−6ссв44210 0.0 1032965
16:00−5ссв34170 0.0 10311187
19:00−6всв44220 0.0 1031647
22:00−6всв34220 0.0 1032388